[[{"header":{"parameterUnit":"m.s-1","parameterCategory":1,"la1":30.2991,"la2":30.254,"lo1":-89.0895,"lo2":-89.0444,"dy":0.0017,"dx":0.0017,"nx":28,"ny":28,"refTime":"2025-07-23T03:00:00:Z","depth":0,"parameterNumber":2,"parameterNumberName":"U-component_of_WINDS"},"data":[0,0,0,0,0,0,0,0,0,0,0,0,0,0,0,0,0,0,0,0,0,0,0,0,0,0,0,0,0,0,0,0,0,0,0,0,0,0,0,0,0,0,0,0,0,0,0,0,0,0,0,0,0,0,0,0,0,0,-2.337,-2.3371,0,-2.3462,-2.3463,-2.3464,-2.3426,-2.3424,-2.3422,-2.342,-2.3516,-2.3521,-2.3526,0,0,0,0,0,0,0,0,0,0,0,0,0,-2.3161,-2.3165,-2.337,-2.3371,-2.3372,-2.3462,-2.3463,-2.3465,-2.3427,-2.3424,-2.3421,-2.3419,-2.3515,-2.352,-2.3526,0,0,0,0,0,0,0,0,0,0,0,0,0,-2.3253,-2.3167,-2.337,-2.3364,-2.3364,-2.3462,-2.3464,-2.3465,-2.3427,-2.3424,-2.3421,-2.3418,-2.3513,-2.352,-2.3527,-2.3636,0,0,-2.3548,-2.3551,0,0,0,0,0,0,0,0,-2.3247,-2.326,-2.3364,-2.3365,-2.3365,-2.3429,-2.3425,-2.3522,-2.3428,-2.3404,-2.342,-2.3416,-2.349,-2.3499,-2.3524,-2.364,-2.3644,-2.3549,-2.3553,-2.3556,-2.3558,0,0,0,0,0,0,0,-2.3241,-2.3256,-2.3406,-2.3365,-2.3366,-2.3357,-2.3367,-2.3444,-2.3464,-2.3405,-2.3403,-2.3414,-2.349,-2.3517,-2.3526,-2.3646,-2.3548,-2.3555,-2.3559,-2.3562,-2.3858,-2.3861,0,0,0,0,0,0,-2.3235,-2.3251,-2.3403,-2.3409,-2.3297,-2.3364,-2.3374,-2.3412,-2.3463,-2.3468,-2.3417,-2.3412,-2.3507,-2.3518,-2.3529,-2.3661,-2.3556,-2.3562,-2.3566,-2.3854,-2.3859,-2.3863,0,0,0,0,0,0,-2.323,-2.3249,-2.34,-2.333,-2.3348,-2.3371,-2.3414,-2.3416,-2.3443,-2.3472,-2.3476,-2.3441,-2.3505,-2.3519,-2.361,-2.3664,-2.3565,-2.3572,-2.385,-2.3856,-2.3861,-2.3926,0,0,0,0,0,0,-2.3224,-2.3247,-2.3289,-2.3331,-2.3352,-2.3479,-2.3417,-2.342,-2.3455,-2.3449,-2.3495,-2.35,-2.3503,-2.3599,-2.3617,-2.3672,-2.3577,-2.3845,-2.3852,-2.3859,-2.3919,-2.3933,-2.3945,0,0,0,0,0,-2.3217,-2.3303,-2.3291,-2.331,-2.3404,-2.3482,-2.3494,-2.3496,-2.3459,-2.3501,-2.352,-2.3498,-2.3655,-2.3609,-2.3628,-2.3686,-2.3842,-2.385,-2.3858,-2.3914,-2.3931,-2.3945,0,0,0,0,0,0,-2.3268,-2.3309,-2.3296,-2.3398,-2.3437,-2.3475,-2.3529,-2.3514,-2.3564,-2.3557,-2.3557,-2.3568,-2.3662,-2.3682,-2.3631,-2.3795,-2.3743,-2.3755,-2.3778,-2.3795,-2.3807,-2.3802,-2.3583,0,0,0,0,0,-2.3291,-2.335,-2.3383,-2.347,-2.349,-2.3506,-2.354,-2.3538,-2.3578,-2.3595,-2.362,-2.3661,-2.3719,-2.3758,-2.3813,-2.3921,-2.3932,-2.3971,-2.3984,-2.3994,-2.4006,-2.4066,-2.4084,-2.389,-2.389,-2.389,0,0,-2.3339,-2.3369,-2.3406,-2.3481,-2.3511,-2.3573,-2.352,-2.3588,-2.3635,-2.3605,-2.3693,-2.3713,-2.3758,-2.3858,-2.3904,-2.3879,-2.4061,-2.4005,-2.4013,-2.4019,-2.4077,-2.4095,-2.4111,-2.3896,-2.3895,-2.3894,0,0,-2.3459,-2.3487,-2.3564,-2.3594,-2.364,-2.365,-2.3668,-2.3709,-2.3722,-2.3809,-2.3789,-2.3844,-2.3944,-2.3977,-2.4008,-2.414,-2.4123,-2.4158,-2.4227,-2.4286,-2.4301,-2.4315,-2.4364,-2.4381,-2.4169,-2.4169,-2.4169,0,-2.3514,-2.3607,-2.3605,-2.3675,-2.3709,-2.3684,-2.3762,-2.3792,-2.3854,-2.3878,-2.3848,-2.3974,-2.4002,-2.4111,-2.4143,-2.4168,-2.419,-2.4154,-2.4299,-2.4312,-2.4325,-2.4372,-2.4391,-2.4173,-2.4173,-2.4172,-2.4172,0,-2.3672,-2.3737,-2.3793,-2.3853,-2.3893,-2.3967,-2.3977,-2.4017,-2.4011,-2.4025,-2.4115,-2.4148,-2.421,-2.4235,-2.4229,-2.4343,-2.4326,-2.4298,-2.4246,-2.4348,-2.4392,-2.441,-2.4179,-2.4178,-2.4176,-2.4175,0,0,-2.3829,-2.3887,-2.3908,-2.3935,-2.3983,-2.4034,-2.4106,-2.4166,-2.4202,-2.4245,-2.4307,-2.4391,-2.4366,-2.44,-2.4398,-2.4449,-2.4555,-2.4415,-2.4416,-2.4441,-2.4684,-2.4707,-2.4728,-2.4542,-2.4545,-2.4548,-2.4681,0,-2.3955,-2.4082,-2.4083,-2.42,-2.4261,-2.4237,-2.4301,-2.4337,-2.4352,-2.4405,-2.442,-2.4482,-2.4442,-2.4462,-2.4512,-2.4531,-2.4604,-2.4521,-2.4601,-2.4604,-2.4593,-2.475,-2.4775,-2.4899,-2.4698,-2.4701,-2.4703,0,-2.4119,-2.4167,-2.4291,-2.4331,-2.4357,-2.4414,-2.4469,-2.452,-2.4561,-2.4568,-2.4606,-2.4596,-2.4671,-2.4615,-2.4719,-2.4663,-2.4695,-2.471,-2.4714,-2.4724,-2.4662,-2.4766,-2.4938,-2.4957,-2.473,-2.4728,-2.4726,0,-2.4223,-2.4319,-2.4406,-2.443,-2.4478,-2.4519,-2.4541,-2.4579,-2.4616,-2.4664,-2.4688,-2.4744,-2.4776,-2.482,-2.4826,-2.4785,-2.4931,-2.4875,-2.494,-2.4941,-2.4975,-2.4973,-2.5156,-2.4991,-2.4991,-2.4991,-2.499,0,-2.4365,-2.4442,-2.4454,-2.4508,-2.4593,-2.4593,-2.4678,-2.4697,-2.4731,-2.4788,-2.4771,-2.4825,-2.4828,-2.4885,-2.4889,-2.4976,-2.4989,-2.4998,-2.4999,-2.5001,-2.5001,-2.5024,-2.5017,-2.4996,-2.4995,-2.4994,-2.4993,0,-2.4498,-2.4508,-2.4602,-2.464,-2.4651,-2.4713,-2.4746,-2.4797,-2.4809,-2.4882,-2.4899,-2.4918,-2.4983,-2.4993,-2.5069,-2.5072,-2.5176,-2.5167,-2.5163,-2.5162,-2.5228,-2.5222,-2.5435,-2.5463,-2.5278,-2.528,-2.5281,0,-2.4589,-2.4648,-2.4692,-2.4729,-2.4753,-2.4813,-2.485,-2.4851,-2.4891,-2.4942,-2.4988,-2.5051,-2.5102,-2.5207,-2.5228,-2.5287,-2.528,-2.535,-2.5289,-2.529,-2.5284,-2.5282,-2.5288,-2.5363,-2.5365,-2.5367,-2.5368,0,-2.475,-2.4752,-2.4806,-2.4862,-2.4907,-2.4951,-2.4993,-2.5024,-2.5031,-2.5076,-2.5142,-2.5182,-2.5259,-2.5323,-2.5381,-2.5404,-2.5389,-2.5387,-2.5406,-2.541,-2.5406,-2.5411,-2.5198,-2.5383,-2.5381,-2.538,-2.5379,-2.5379,-2.4866,-2.4918,-2.4957,-2.5018,-2.505,-2.5089,-2.514,-2.5158,-2.5213,-2.5276,-2.5273,-2.5347,-2.5387,-2.5463,-2.549,-2.5548,-2.5525,-2.5551,-2.5559,-2.5566,-2.5573,-2.5394,-2.5558,-2.5557,-2.5557,-2.5557,-2.5556,0,-2.5028,-2.5052,-2.5108,-2.5167,-2.5216,-2.5195,-2.524,-2.5282,-2.5346,-2.5385,-2.5435,-2.5511,-2.5573,-2.5598,-2.5659,-2.57,-2.5695,-2.5716,-2.5715,-2.5721,-2.5589,-2.5568,-2.572,-2.572,-2.572,-2.572,-2.572,-2.572,-2.5118,-2.5206,-2.5212,-2.5315,-2.5338,-2.541,-2.5438,-2.5475,-2.5505,-2.5592,-2.5642,-2.5658,-2.5692,-2.5755,-2.581,-2.5816,-2.5841,-2.5866,-2.5869,-2.5746,-2.573,-2.5714,-2.5694,-2.5871,-2.5871,-2.5997,-2.5998,-2.5999]},{"header":{"parameterUnit":"m.s-1","parameterCategory":1,"la1":30.2991,"la2":30.254,"lo1":-89.0895,"lo2":-89.0444,"dy":0.0017,"dx":0.0017,"nx":28,"ny":28,"refTime":"2025-07-23T03:00:00:Z","depth":0,"parameterNumber":3,"parameterNumberName":"V-component_of_WINDS"},"data":[0,0,0,0,0,0,0,0,0,0,0,0,0,0,0,0,0,0,0,0,0,0,0,0,0,0,0,0,0,0,0,0,0,0,0,0,0,0,0,0,0,0,0,0,0,0,0,0,0,0,0,0,0,0,0,0,0,0,-1.0496,-1.0496,0,-1.0507,-1.0507,-1.0507,-1.0498,-1.0497,-1.0497,-1.0497,-1.0509,-1.051,-1.051,0,0,0,0,0,0,0,0,0,0,0,0,0,-1.0469,-1.047,-1.0496,-1.0496,-1.0496,-1.0506,-1.0507,-1.0507,-1.0498,-1.0497,-1.0497,-1.0496,-1.0509,-1.051,-1.051,0,0,0,0,0,0,0,0,0,0,0,0,0,-1.0481,-1.047,-1.0496,-1.0493,-1.0493,-1.0506,-1.0507,-1.0507,-1.0498,-1.0497,-1.0497,-1.0496,-1.0508,-1.0509,-1.051,-1.0528,0,0,-1.0514,-1.0514,0,0,0,0,0,0,0,0,-1.048,-1.0482,-1.0493,-1.0493,-1.0493,-1.05,-1.0502,-1.0514,-1.0498,-1.0496,-1.0497,-1.0496,-1.0507,-1.0508,-1.0511,-1.0529,-1.0529,-1.0514,-1.0514,-1.0515,-1.0515,0,0,0,0,0,0,0,-1.0479,-1.0481,-1.05,-1.0493,-1.0493,-1.0491,-1.0492,-1.0504,-1.0504,-1.0496,-1.0495,-1.0497,-1.0506,-1.051,-1.0511,-1.0529,-1.0514,-1.0515,-1.0515,-1.0516,-1.0562,-1.0563,0,0,0,0,0,0,-1.0479,-1.048,-1.05,-1.0501,-1.0485,-1.0492,-1.0493,-1.0498,-1.0504,-1.0505,-1.0497,-1.0496,-1.0509,-1.051,-1.0512,-1.0533,-1.0515,-1.0516,-1.0516,-1.0562,-1.0562,-1.0563,0,0,0,0,0,0,-1.0478,-1.048,-1.0499,-1.049,-1.0493,-1.0493,-1.0499,-1.0499,-1.0503,-1.0505,-1.0505,-1.0501,-1.0508,-1.051,-1.0524,-1.0533,-1.0516,-1.0517,-1.0561,-1.0562,-1.0563,-1.0575,0,0,0,0,0,0,-1.0477,-1.048,-1.0487,-1.049,-1.0493,-1.0511,-1.05,-1.05,-1.0504,-1.0503,-1.0508,-1.0509,-1.0508,-1.0522,-1.0525,-1.0534,-1.0518,-1.056,-1.0561,-1.0562,-1.0574,-1.0576,-1.0579,0,0,0,0,0,-1.0476,-1.049,-1.0487,-1.0489,-1.0501,-1.0512,-1.0513,-1.0512,-1.0505,-1.0512,-1.0513,-1.0509,-1.0532,-1.0524,-1.0527,-1.0536,-1.0559,-1.0561,-1.0562,-1.0573,-1.0576,-1.0579,0,0,0,0,0,0,-1.0488,-1.0491,-1.0487,-1.0503,-1.0507,-1.051,-1.0519,-1.0515,-1.0522,-1.052,-1.0518,-1.052,-1.0534,-1.0537,-1.0528,-1.0554,-1.0545,-1.0547,-1.0552,-1.0555,-1.0557,-1.0556,-1.0519,0,0,0,0,0,-1.0492,-1.05,-1.0502,-1.0516,-1.0518,-1.0518,-1.0523,-1.0521,-1.0525,-1.0527,-1.053,-1.0535,-1.0543,-1.0549,-1.0557,-1.0574,-1.0575,-1.0582,-1.0584,-1.0586,-1.0588,-1.0598,-1.0601,-1.0568,-1.0568,-1.0568,0,0,-1.0501,-1.0504,-1.0509,-1.0518,-1.0521,-1.053,-1.052,-1.0529,-1.0536,-1.0529,-1.0542,-1.0544,-1.055,-1.0565,-1.0572,-1.0568,-1.0597,-1.0588,-1.0589,-1.059,-1.0599,-1.0603,-1.0605,-1.0569,-1.0568,-1.0568,0,0,-1.0523,-1.0525,-1.0536,-1.054,-1.0544,-1.0544,-1.0547,-1.0551,-1.0552,-1.0564,-1.0559,-1.0567,-1.0582,-1.0586,-1.059,-1.0612,-1.0608,-1.0615,-1.0627,-1.0636,-1.0639,-1.0641,-1.0649,-1.0652,-1.0617,-1.0617,-1.0617,0,-1.0534,-1.0546,-1.0543,-1.0553,-1.0557,-1.055,-1.0562,-1.0566,-1.0573,-1.0576,-1.0571,-1.0589,-1.0592,-1.0608,-1.0614,-1.0617,-1.0621,-1.0614,-1.0639,-1.0641,-1.0643,-1.0651,-1.0654,-1.0617,-1.0617,-1.0617,-1.0617,0,-1.0559,-1.0568,-1.0577,-1.0583,-1.0588,-1.0599,-1.0598,-1.0604,-1.0601,-1.0602,-1.0615,-1.0619,-1.0627,-1.0631,-1.0629,-1.0647,-1.0644,-1.0639,-1.063,-1.0647,-1.0654,-1.0657,-1.0619,-1.0618,-1.0618,-1.0618,0,0,-1.0589,-1.0593,-1.0596,-1.0599,-1.0603,-1.061,-1.0621,-1.0628,-1.0634,-1.0639,-1.0648,-1.066,-1.0655,-1.0659,-1.0658,-1.0666,-1.0683,-1.0659,-1.0659,-1.0664,-1.0704,-1.0708,-1.0712,-1.0681,-1.0681,-1.0682,-1.0704,0,-1.061,-1.0628,-1.0625,-1.0643,-1.0651,-1.0644,-1.0654,-1.0658,-1.0658,-1.0666,-1.0667,-1.0675,-1.0668,-1.067,-1.0678,-1.068,-1.0691,-1.0678,-1.069,-1.069,-1.0689,-1.0716,-1.072,-1.0741,-1.0707,-1.0707,-1.0707,0,-1.0638,-1.0643,-1.0661,-1.0664,-1.0667,-1.0676,-1.0682,-1.0689,-1.0694,-1.0694,-1.0699,-1.0695,-1.0706,-1.0697,-1.0712,-1.0703,-1.0707,-1.0709,-1.071,-1.0711,-1.07,-1.0718,-1.0748,-1.0751,-1.0712,-1.0711,-1.0711,0,-1.0658,-1.0669,-1.0682,-1.0684,-1.0688,-1.0694,-1.0696,-1.07,-1.0704,-1.071,-1.0714,-1.0721,-1.0725,-1.0731,-1.073,-1.0723,-1.0746,-1.0736,-1.0747,-1.0747,-1.0753,-1.0752,-1.0784,-1.0755,-1.0755,-1.0755,-1.0755,0,-1.0682,-1.0693,-1.0691,-1.0698,-1.0711,-1.0708,-1.072,-1.0722,-1.0725,-1.0733,-1.0728,-1.0736,-1.0734,-1.0742,-1.0741,-1.0754,-1.0756,-1.0757,-1.0757,-1.0758,-1.0758,-1.0761,-1.076,-1.0756,-1.0755,-1.0755,-1.0755,0,-1.0707,-1.0705,-1.0718,-1.072,-1.0721,-1.073,-1.0733,-1.074,-1.074,-1.075,-1.0752,-1.0753,-1.0762,-1.0761,-1.0772,-1.0771,-1.0787,-1.0785,-1.0786,-1.0786,-1.0796,-1.0796,-1.0831,-1.0836,-1.0804,-1.0804,-1.0804,0,-1.0722,-1.0731,-1.0734,-1.0738,-1.0741,-1.0748,-1.0753,-1.075,-1.0755,-1.0761,-1.0768,-1.0776,-1.0783,-1.0798,-1.0799,-1.0807,-1.0805,-1.0817,-1.0807,-1.0807,-1.0806,-1.0806,-1.0807,-1.082,-1.082,-1.082,-1.0821,0,-1.0751,-1.075,-1.0756,-1.0762,-1.0768,-1.0773,-1.0777,-1.0781,-1.0779,-1.0785,-1.0794,-1.0799,-1.0809,-1.0818,-1.0826,-1.0828,-1.0824,-1.0824,-1.0827,-1.0828,-1.0828,-1.0829,-1.0792,-1.0823,-1.0823,-1.0823,-1.0823,-1.0822,-1.0772,-1.0779,-1.0782,-1.0789,-1.0792,-1.0797,-1.0804,-1.0804,-1.0811,-1.0819,-1.0817,-1.0827,-1.0831,-1.0841,-1.0844,-1.0852,-1.0848,-1.0853,-1.0854,-1.0855,-1.0856,-1.0826,-1.0854,-1.0854,-1.0854,-1.0854,-1.0854,0,-1.08,-1.0802,-1.0808,-1.0814,-1.082,-1.0815,-1.082,-1.0825,-1.0834,-1.0838,-1.0844,-1.0855,-1.0863,-1.0865,-1.0873,-1.0879,-1.0878,-1.0882,-1.0881,-1.0882,-1.0859,-1.0856,-1.0883,-1.0883,-1.0883,-1.0883,-1.0883,-1.0883,-1.0816,-1.0827,-1.0827,-1.084,-1.0842,-1.0851,-1.0854,-1.0858,-1.0861,-1.0873,-1.0879,-1.088,-1.0884,-1.0892,-1.0899,-1.09,-1.0903,-1.0908,-1.0908,-1.0886,-1.0884,-1.0881,-1.0878,-1.0908,-1.0908,-1.093,-1.093,-1.093]}]]